Location: Chrząstowo
(52.0654°N, 17.1290°E)
Time: 20:34:48
(UTC+01:00)

Envisat - Pass Details

Date: 11 December 2019
Orbit: 764 x 766 km, 98.1° (Epoch: 26 January)

Event Time Altitude Azimuth Distance (km) Brightness Sun altitude
Rises 16:21:46 0° 128° (SE) 3,228 6.0 -6.2°
Reaches altitude 10° 16:24:21 10° 117° (ESE) 2,306 5.2 -6.5°
Maximum altitude 16:28:35 28° 60° (ENE) 1,432 3.9 -7.1°
Drops below altitude 10° 16:32:50 10° 4° (N) 2,318 5.2 -7.7°
Sets 16:35:26 0° 353° (N) 3,249 6.0 -8.0°
